Location: ????????
(55.6333°N, 37.7000°E)
Time: 00:43:17
(UTC+00:00)

Resurs 1-4 Rocket - Pass Details

Date: 22 May 2026
Orbit: 797 x 813 km, 98.8° (Epoch: 10 June)

Event Time Altitude Azimuth Distance (km) Brightness Sun altitude
Rises 00:01:12 0° 19° (NNE) 3,327 7.0 -7.2°
Reaches altitude 10° 00:03:38 10° 24° (NNE) 2,390 6.2 -7.0°
Maximum altitude 00:08:45 50° 100° (E) 1,018 2.9 -6.6°
Drops below altitude 10° 00:13:49 10° 176° (S) 2,367 4.1 -6.1°
Sets 00:16:13 0° 181° (S) 3,292 4.8 -5.9°
